Weather History for 71706 - February, 2014

Change the Weather History Date:

Friday, February 21, 2014

  Actual Average Record
Temperature  
Mean Temperature 26 °F -  
Max Temperature 32 °F 31 °F - ()
Min Temperature 19 °F 16 °F - ()
Degree Days  
Heating Degree Days 40    
Moisture  
Dew Point 21 °F    
Average Humidity 77    
Maximum Humidity 86    
Minimum Humidity 54    
Precipitation  
Precipitation 0.16 in 0.12 in - ()
Sea Level Pressure  
Sea Level Pressure 30.19 in    
Wind  
Wind Speed 8 mph ()    
Max Wind Speed 16 mph    
Max Gust Speed 28 mph    
Visibility 14.9 miles    
Events Rain    
T = Trace of Precipitation, MM = Missing Value Source: Averaged Metar Reports

Daily Weather History Graph

Daily Weather History Graph

Search for Another Location

Airport or City:

Trip Planner

Search our weather history database for the weather conditions in past years. The results will help you decide how hot, cold, wet, or windy it might be!

Date:

Astronomy

Feb. 21, 2014 Rise Set
Actual Time 7:05 AM AST 5:47 PM AST
Civil Twilight 6:35 AM AST 6:17 PM AST
Nautical Twilight 6:00 AM AST 6:52 PM AST
Astronomical Twilight 5:25 AM AST 7:27 PM AST
Moon No Moon Rise 10:04 AM AST (2/21)
Length of Visible Light 11h 42m
Length of Day
10h 41m
Waning Gibbous, 61% of the Moon is Illuminated
Feb 21
Waning Gibbous
Feb 22
Last Quarter
Mar 1
New
Mar 8
First Quarter
Mar 16
Full

Hourly Weather History & Observations

Time (AST) Temp. Windchill Dew Point Humidity Pressure Visibility Wind Dir Wind Speed Gust Speed Precip Events Conditions
12:00 AM 28.4 °F 19.1 °F 23.0 °F 80% 30.07 in 15.0 mi West 10.4 mph - N/A   Partly Cloudy
1:00 AM 28.4 °F 18.0 °F 21.2 °F 74% 30.09 in 15.0 mi WNW 12.7 mph - N/A   Partly Cloudy
2:00 AM 27 °F - 21 °F 68% 30.11 in 15 mi West 10.4 mph - -   Scattered Clouds
2:00 AM 26.6 °F 16.2 °F 21.2 °F 80% 30.11 in 15.0 mi West 11.5 mph - N/A   Partly Cloudy
3:00 AM 24.8 °F 16.9 °F 21.2 °F 86% 30.14 in 15.0 mi SW 6.9 mph - N/A   Clear
4:00 AM 24.8 °F 16.1 °F 19.4 °F 80% 30.17 in 15.0 mi WSW 8.1 mph - N/A   Clear
5:00 AM 23.0 °F 13.1 °F 17.6 °F 80% 30.18 in 15.0 mi West 9.2 mph - N/A   Clear
6:00 AM 24.8 °F 14.6 °F 19.4 °F 80% 30.19 in 15.0 mi West 10.4 mph - N/A   Clear
7:00 AM 23.0 °F 13.9 °F 17.6 °F 80% 30.20 in 15.0 mi West 8.1 mph - N/A   Clear
8:00 AM 20 °F - 17 °F 85% 30.24 in 15 mi Calm Calm - -   Clear
8:00 AM 21.2 °F - 17.6 °F 86% 30.23 in 15.0 mi Variable 2.3 mph - N/A   Partly Cloudy
9:00 AM 23.0 °F 15.8 °F 19.4 °F 86% 30.24 in 15.0 mi WSW 5.8 mph - N/A   Partly Cloudy
10:00 AM 26.6 °F 19.1 °F 19.4 °F 74% 30.26 in 15.0 mi NW 6.9 mph - N/A   Partly Cloudy
11:00 AM 28.4 °F 22.2 °F 21.2 °F 74% 30.27 in 15.0 mi NNW 5.8 mph - N/A   Mostly Cloudy
12:00 PM 30.2 °F - 21.2 °F 69% 30.27 in 15.0 mi NNW 2.3 mph - N/A   Mostly Cloudy
1:00 PM 30.2 °F 24.3 °F 23.0 °F 75% 30.27 in 15.0 mi NNE 5.8 mph - N/A   Mostly Cloudy
2:00 PM 32 °F - 22 °F 54% 30.26 in 15 mi SE 2.3 mph - -   Scattered Clouds
2:00 PM 32.0 °F - 21.2 °F 64% 30.26 in 15.0 mi Calm Calm - N/A   Mostly Cloudy
3:00 PM 32.0 °F 26.4 °F 23.0 °F 69% 30.25 in 15.0 mi East 5.8 mph - N/A   Mostly Cloudy
4:00 PM 30.2 °F 26.7 °F 23.0 °F 75% 30.25 in 15.0 mi East 3.5 mph - N/A   Mostly Cloudy
5:00 PM 28.4 °F 21.2 °F 23.0 °F 80% 30.24 in 15.0 mi ENE 6.9 mph - N/A   Overcast
6:00 PM 28.4 °F 23.3 °F 24.8 °F 86% 30.24 in 15.0 mi East 4.6 mph - N/A   Overcast
7:00 PM 28.4 °F 20.4 °F 24.8 °F 86% 30.25 in 15.0 mi ESE 8.1 mph - N/A   Overcast
8:00 PM 28 °F - 23 °F 76% 30.22 in 15 mi ESE 11.5 mph - -   Overcast
8:00 PM 28.4 °F 18.0 °F 23.0 °F 80% 30.22 in 15.0 mi ESE 12.7 mph - N/A   Overcast
9:00 PM 28.4 °F 17.0 °F 23.0 °F 80% 30.18 in 15.0 mi ESE 15.0 mph - N/A   Overcast
10:00 PM 28.4 °F 17.0 °F 21.2 °F 74% 30.14 in 15.0 mi ESE 15.0 mph - N/A   Overcast
11:00 PM 28.4 °F 16.6 °F 23.0 °F 80% 30.04 in 15.0 mi ESE 16.1 mph 27.6 mph N/A   Overcast
11:58 PM 30.2 °F 18.9 °F 24.8 °F 80% 30.01 in 12.0 mi SE 16.1 mph 24.2 mph N/A Rain Light Freezing Rain